This is the latest recevied weather packets stored in our database for station/object KC0UFP. If no packets are shown the sender has not sent any weather packets the latest 10 day(s).
| Time | Temp. | Humidity | Pressure | Rain* | Wind** | Luminosity | Snow |
|---|---|---|---|---|---|---|---|
| 1777504347 | 20° C | 59% | 1013.2 hPa | 0 mm | - | 126 W/m² | - |
| 1777504041 | 20° C | 58% | 1013.6 hPa | 0 mm | - | 134 W/m² | - |
| 1777503738 | 20° C | 57% | 1013.4 hPa | 0 mm | - | 137 W/m² | - |
| 1777503435 | 20° C | 58% | 1013.3 hPa | 0 mm | - | 130 W/m² | - |
| 1777503131 | 20° C | 59% | 1013.4 hPa | 0 mm | - | 163 W/m² | - |
| 1777502829 | 20.56° C | 59% | 1013.3 hPa | 0 mm | - | 160 W/m² | - |
| 1777502526 | 20° C | 58% | 1013.2 hPa | 0 mm | - | 199 W/m² | - |
| 1777502223 | 20.56° C | 57% | 1013.1 hPa | 0 mm | - | 157 W/m² | - |
| 1777501920 | 20.56° C | 57% | 1013 hPa | 0 mm | - | 175 W/m² | - |
| 1777501617 | 21.11° C | 57% | 1013.1 hPa | 0 mm | - | 212 W/m² | - |
| 1777501313 | 20.56° C | 57% | 1013.5 hPa | 0 mm | - | 422 W/m² | - |
| 1777501011 | 21.11° C | 58% | 1013.2 hPa | 0 mm | - | 217 W/m² | - |
| 1777500709 | 20.56° C | 58% | 1013.4 hPa | 0 mm | - | 303 W/m² | - |
| 1777500405 | 20.56° C | 59% | 1013.2 hPa | 0 mm | - | 381 W/m² | - |
| 1777500102 | 20.56° C | 60% | 1013.6 hPa | 0 mm | - | 288 W/m² | - |
| 1777499799 | 20.56° C | 58% | 1013.6 hPa | 0 mm | - | 291 W/m² | - |
| 1777499495 | 21.11° C | 57% | 1013.4 hPa | 0 mm | - | 178 W/m² | - |
| 1777499193 | 21.11° C | 60% | 1013.8 hPa | 0 mm | - | 598 W/m² | - |
| 1777498889 | 21.11° C | 58% | 1013.6 hPa | 0 mm | - | 605 W/m² | - |
| 1777498586 | 20.56° C | 60% | 1013.7 hPa | 0 mm | - | 676 W/m² | - |
| 1777498282 | 20.56° C | 59% | 1013.6 hPa | 0 mm | - | 182 W/m² | - |
| 1777497981 | 20.56° C | 61% | 1014 hPa | 0 mm | - | 444 W/m² | - |
| 1777497676 | 20.56° C | 60% | 1013.9 hPa | 0 mm | - | 254 W/m² | - |
| 1777497373 | 21.11° C | 57% | 1013.8 hPa | 0 mm | - | 795 W/m² | - |
| 1777497069 | 20.56° C | 60% | 1014.1 hPa | 0 mm | - | 712 W/m² | - |
* Rain latest hour (hover to see other rain measurements)
** Current wind speed in m/s (hover to see current wind gust speed)